Time,TemperatureF,DewpointF,PressureIn,WindDirection,WindDirectionDegrees,WindSpeedMPH,WindSpeedGustMPH,Humidity,HourlyPrecipIn,Conditions,Clouds,dailyrainin,SoftwareType,DateUTC
2013-08-19 00:04:00,80.2,57.6,29.72,West,275,0.0,0.0,46,0.00,,,0.00,meteohub,2013-08-19 06:04:00,
2013-08-19 00:09:00,80.1,57.4,29.72,West,275,0.0,0.0,46,0.00,,,0.00,meteohub,2013-08-19 06:09:00,
2013-08-19 00:14:00,79.9,57.2,29.72,West,275,0.0,0.0,46,0.00,,,0.00,meteohub,2013-08-19 06:14:00,
2013-08-19 00:20:00,79.9,57.2,29.72,West,275,0.0,0.0,46,0.00,,,0.00,meteohub,2013-08-19 06:20:00,
2013-08-19 00:25:00,79.7,56.5,29.72,West,275,0.0,0.0,45,0.00,,,0.00,meteohub,2013-08-19 06:25:00,
2013-08-19 00:30:00,79.9,55.9,29.72,West,275,0.0,0.0,44,0.00,,,0.00,meteohub,2013-08-19 06:30:00,
2013-08-19 00:35:00,80.2,55.8,29.73,West,275,0.0,0.0,43,0.00,,,0.00,meteohub,2013-08-19 06:35:00,
2013-08-19 00:40:00,80.8,55.6,29.73,ESE,115,0.0,0.0,42,0.00,,,0.00,meteohub,2013-08-19 06:40:00,
2013-08-19 00:45:00,81.1,55.2,29.73,ESE,115,0.0,0.0,41,0.00,,,0.00,meteohub,2013-08-19 06:45:00,
2013-08-19 00:50:00,81.1,55.9,29.73,ESE,115,0.0,0.0,42,0.00,,,0.00,meteohub,2013-08-19 06:50:00,
2013-08-19 00:55:00,81.1,55.9,29.73,ESE,115,0.0,0.0,42,0.00,,,0.00,meteohub,2013-08-19 06:55:00,
2013-08-19 01:01:00,81.0,55.8,29.72,ESE,115,0.0,0.0,42,0.00,,,0.00,meteohub,2013-08-19 07:01:00,
2013-08-19 01:06:00,80.6,56.1,29.73,ESE,115,0.0,0.0,43,0.00,,,0.00,meteohub,2013-08-19 07:06:00,
2013-08-19 01:11:00,80.2,55.8,29.73,ESE,115,0.0,0.0,43,0.00,,,0.00,meteohub,2013-08-19 07:11:00,
2013-08-19 01:16:00,80.1,56.1,29.73,ESE,115,0.0,0.0,44,0.00,,,0.00,meteohub,2013-08-19 07:16:00,
2013-08-19 01:21:00,79.9,56.7,29.73,ESE,115,0.0,0.0,45,0.00,,,0.00,meteohub,2013-08-19 07:21:00,
2013-08-19 01:26:00,79.5,56.3,29.73,ESE,115,0.0,0.0,45,0.00,,,0.00,meteohub,2013-08-19 07:26:00,
2013-08-19 01:31:00,79.2,55.9,29.73,SE,136,0.0,0.0,45,0.00,,,0.00,meteohub,2013-08-19 07:31:00,
2013-08-19 01:37:00,79.0,56.5,29.73,SSW,196,0.0,0.0,46,0.00,,,0.00,meteohub,2013-08-19 07:37:00,
2013-08-19 01:42:00,78.8,56.3,29.73,SSW,196,0.0,0.0,46,0.00,,,0.00,meteohub,2013-08-19 07:42:00,
2013-08-19 01:47:00,78.4,56.5,29.73,SSW,196,0.0,0.0,47,0.00,,,0.00,meteohub,2013-08-19 07:47:00,
2013-08-19 01:52:00,78.3,56.3,29.73,SSW,196,0.0,0.0,47,0.00,,,0.00,meteohub,2013-08-19 07:52:00,
2013-08-19 01:57:00,77.7,56.5,29.73,SSW,196,0.0,0.0,48,0.00,,,0.00,meteohub,2013-08-19 07:57:00,
2013-08-19 02:02:00,77.4,56.1,29.73,SSW,196,0.0,0.0,48,0.00,,,0.00,meteohub,2013-08-19 08:02:00,
2013-08-19 02:07:00,77.2,56.5,29.73,SSW,196,0.0,0.0,49,0.00,,,0.00,meteohub,2013-08-19 08:07:00,
2013-08-19 02:12:00,76.8,56.3,29.73,SSW,196,0.0,0.0,49,0.00,,,0.00,meteohub,2013-08-19 08:12:00,
2013-08-19 02:17:00,76.6,56.7,29.72,SSW,196,0.0,0.0,50,0.00,,,0.00,meteohub,2013-08-19 08:17:00,
2013-08-19 02:22:00,76.5,56.5,29.72,SSW,196,0.0,0.0,50,0.00,,,0.00,meteohub,2013-08-19 08:22:00,
2013-08-19 02:27:00,76.5,57.0,29.73,SSW,196,0.0,0.0,51,0.00,,,0.00,meteohub,2013-08-19 08:27:00,
2013-08-19 02:33:00,76.5,57.0,29.72,SSW,196,0.0,0.0,51,0.00,,,0.00,meteohub,2013-08-19 08:33:00,
2013-08-19 02:38:00,76.3,56.8,29.72,SSW,196,0.0,0.0,51,0.00,,,0.00,meteohub,2013-08-19 08:38:00,
2013-08-19 02:43:00,76.3,56.8,29.72,SSW,196,0.0,0.0,51,0.00,,,0.00,meteohub,2013-08-19 08:43:00,
2013-08-19 02:48:00,76.3,56.8,29.72,SSW,196,0.0,0.0,51,0.00,,,0.00,meteohub,2013-08-19 08:48:00,
2013-08-19 02:53:00,76.3,56.3,29.72,SSW,196,0.0,0.0,50,0.00,,,0.00,meteohub,2013-08-19 08:53:00,
2013-08-19 02:58:00,76.5,56.5,29.71,SSW,196,0.0,0.0,50,0.00,,,0.00,meteohub,2013-08-19 08:58:00,
2013-08-19 03:03:00,76.5,56.5,29.71,SSW,196,0.0,0.0,50,0.00,,,0.00,meteohub,2013-08-19 09:03:00,
2013-08-19 03:09:00,76.5,55.9,29.71,SSW,196,0.0,0.0,49,0.00,,,0.00,meteohub,2013-08-19 09:09:00,
2013-08-19 03:14:00,76.6,56.1,29.71,SSW,195,0.0,0.0,49,0.00,,,0.00,meteohub,2013-08-19 09:14:00,
2013-08-19 03:19:00,76.6,55.4,29.72,SSW,195,0.0,0.0,48,0.00,,,0.00,meteohub,2013-08-19 09:19:00,
2013-08-19 03:24:00,76.6,55.4,29.72,SSW,195,0.0,0.0,48,0.00,,,0.00,meteohub,2013-08-19 09:24:00,
2013-08-19 03:29:00,76.5,55.9,29.71,SSW,195,0.0,0.0,49,0.00,,,0.00,meteohub,2013-08-19 09:29:00,
2013-08-19 03:34:00,76.1,55.6,29.72,SSW,195,0.0,0.0,49,0.00,,,0.00,meteohub,2013-08-19 09:34:00,
2013-08-19 03:39:00,75.9,55.9,29.72,SSW,195,0.0,0.0,50,0.00,,,0.00,meteohub,2013-08-19 09:39:00,
2013-08-19 03:45:00,75.9,56.5,29.71,SSW,195,0.0,0.0,51,0.00,,,0.00,meteohub,2013-08-19 09:45:00,
2013-08-19 03:50:00,75.7,56.3,29.71,SSW,195,0.0,0.0,51,0.00,,,0.00,meteohub,2013-08-19 09:50:00,
2013-08-19 03:55:00,75.6,56.7,29.71,SSW,195,0.0,0.0,52,0.00,,,0.00,meteohub,2013-08-19 09:55:00,
2013-08-19 04:00:00,75.2,56.3,29.71,SSW,195,0.0,0.0,52,0.00,,,0.00,meteohub,2013-08-19 10:00:00,
2013-08-19 04:05:00,74.8,56.5,29.71,SSW,195,0.0,0.0,53,0.00,,,0.00,meteohub,2013-08-19 10:05:00,
2013-08-19 04:10:00,74.5,56.7,29.71,SSW,195,0.0,0.0,54,0.00,,,0.00,meteohub,2013-08-19 10:10:00,
2013-08-19 04:15:00,74.3,56.7,29.70,SSW,195,0.0,0.0,54,0.00,,,0.00,meteohub,2013-08-19 10:15:00,
2013-08-19 04:20:00,74.1,56.8,29.70,SSW,195,0.0,0.0,55,0.00,,,0.00,meteohub,2013-08-19 10:20:00,
2013-08-19 04:26:00,73.9,57.2,29.70,SSW,195,0.0,0.0,56,0.00,,,0.00,meteohub,2013-08-19 10:26:00,
2013-08-19 04:31:00,73.8,57.0,29.70,SSW,195,0.0,0.0,56,0.00,,,0.00,meteohub,2013-08-19 10:31:00,
2013-08-19 04:36:00,73.6,56.8,29.71,SSW,195,0.0,0.0,56,0.00,,,0.00,meteohub,2013-08-19 10:36:00,
2013-08-19 04:41:00,73.0,56.8,29.71,SSW,195,0.0,0.0,57,0.00,,,0.00,meteohub,2013-08-19 10:41:00,
2013-08-19 04:46:00,72.9,57.2,29.71,SSW,195,0.0,0.0,58,0.00,,,0.00,meteohub,2013-08-19 10:46:00,
2013-08-19 04:51:00,72.7,57.6,29.71,SSW,195,0.0,0.0,59,0.00,,,0.00,meteohub,2013-08-19 10:51:00,
2013-08-19 04:56:00,72.3,57.7,29.71,SSW,195,0.0,0.0,60,0.00,,,0.00,meteohub,2013-08-19 10:56:00,
2013-08-19 05:02:00,72.0,57.4,29.71,SSW,195,0.0,0.0,60,0.00,,,0.00,meteohub,2013-08-19 11:02:00,
2013-08-19 05:07:00,71.8,57.6,29.71,SSW,195,0.0,0.0,61,0.00,,,0.00,meteohub,2013-08-19 11:07:00,
2013-08-19 05:12:00,71.6,57.4,29.71,SSW,195,0.0,0.0,61,0.00,,,0.00,meteohub,2013-08-19 11:12:00,
2013-08-19 05:17:00,71.4,57.7,29.71,SSW,195,0.0,0.0,62,0.00,,,0.00,meteohub,2013-08-19 11:17:00,
2013-08-19 05:22:00,71.1,57.4,29.71,SSW,195,0.0,0.0,62,0.00,,,0.00,meteohub,2013-08-19 11:22:00,
2013-08-19 05:27:00,70.9,57.7,29.71,SSW,195,0.0,0.0,63,0.00,,,0.00,meteohub,2013-08-19 11:27:00,
2013-08-19 05:32:00,70.9,57.7,29.72,SSW,195,0.0,0.0,63,0.00,,,0.00,meteohub,2013-08-19 11:32:00,
2013-08-19 05:37:00,70.9,57.7,29.71,SSW,195,0.0,0.0,63,0.00,,,0.00,meteohub,2013-08-19 11:37:00,
2013-08-19 05:42:00,70.7,57.6,29.71,SSW,195,0.0,0.0,63,0.00,,,0.00,meteohub,2013-08-19 11:42:00,
2013-08-19 05:47:00,70.7,57.6,29.72,SSW,195,0.0,0.0,63,0.00,,,0.00,meteohub,2013-08-19 11:47:00,
2013-08-19 05:52:00,70.7,57.6,29.72,SSW,195,0.0,0.0,63,0.00,,,0.00,meteohub,2013-08-19 11:52:00,
2013-08-19 05:57:00,70.7,57.6,29.72,SSW,195,0.0,0.0,63,0.00,,,0.00,meteohub,2013-08-19 11:57:00,
2013-08-19 06:02:00,70.5,57.4,29.72,SSW,195,0.0,0.0,63,0.00,,,0.00,meteohub,2013-08-19 12:02:00,
2013-08-19 06:07:00,70.5,57.7,29.72,SSW,195,0.0,0.0,64,0.00,,,0.00,meteohub,2013-08-19 12:07:00,
2013-08-19 06:12:00,70.5,57.7,29.73,SSW,195,0.0,0.0,64,0.00,,,0.00,meteohub,2013-08-19 12:12:00,
2013-08-19 06:17:00,70.3,57.2,29.72,SSW,195,0.0,0.0,63,0.00,,,0.00,meteohub,2013-08-19 12:17:00,
2013-08-19 06:22:00,70.3,57.2,29.73,SSW,195,0.0,0.0,63,0.00,,,0.00,meteohub,2013-08-19 12:22:00,
2013-08-19 06:27:00,70.2,57.9,29.73,SSW,195,0.0,0.0,65,0.00,,,0.00,meteohub,2013-08-19 12:27:00,
2013-08-19 06:32:00,70.2,57.9,29.74,SSW,195,0.0,0.0,65,0.00,,,0.00,meteohub,2013-08-19 12:32:00,
2013-08-19 06:37:00,70.0,57.7,29.74,SSW,195,0.0,0.0,65,0.00,,,0.00,meteohub,2013-08-19 12:37:00,
2013-08-19 06:42:00,70.0,58.1,29.74,SSW,195,0.0,0.0,66,0.00,,,0.00,meteohub,2013-08-19 12:42:00,
2013-08-19 06:47:00,69.8,57.9,29.74,SSW,195,0.0,0.0,66,0.00,,,0.00,meteohub,2013-08-19 12:47:00,
2013-08-19 06:52:00,69.6,57.7,29.75,SSW,195,0.0,0.0,66,0.00,,,0.00,meteohub,2013-08-19 12:52:00,
2013-08-19 06:57:00,69.4,57.6,29.75,SSW,195,0.0,0.0,66,0.00,,,0.00,meteohub,2013-08-19 12:57:00,
2013-08-19 07:02:00,69.4,57.9,29.75,SSW,195,0.0,0.0,67,0.00,,,0.00,meteohub,2013-08-19 13:02:00,
2013-08-19 07:07:00,69.6,58.1,29.75,SSW,196,0.0,0.0,67,0.00,,,0.00,meteohub,2013-08-19 13:07:00,
2013-08-19 07:12:00,70.0,58.5,29.75,SSW,196,0.0,0.0,67,0.00,,,0.00,meteohub,2013-08-19 13:12:00,
2013-08-19 07:17:00,70.3,58.5,29.75,SSW,195,0.0,0.0,66,0.00,,,0.00,meteohub,2013-08-19 13:17:00,
2013-08-19 07:22:00,70.9,58.5,29.75,SSW,196,0.0,0.0,65,0.00,,,0.00,meteohub,2013-08-19 13:22:00,
2013-08-19 07:27:00,71.4,58.1,29.76,SSW,196,0.0,0.0,63,0.00,,,0.00,meteohub,2013-08-19 13:27:00,
2013-08-19 07:32:00,72.0,58.3,29.76,SSW,196,0.0,0.0,62,0.00,,,0.00,meteohub,2013-08-19 13:32:00,
2013-08-19 07:37:00,72.7,58.5,29.76,SSW,196,0.0,0.0,61,0.00,,,0.00,meteohub,2013-08-19 13:37:00,
2013-08-19 07:42:00,73.0,57.9,29.76,SSW,196,0.0,0.0,59,0.00,,,0.00,meteohub,2013-08-19 13:42:00,
2013-08-19 07:47:00,73.6,57.9,29.76,SSW,196,0.0,0.0,58,0.00,,,0.00,meteohub,2013-08-19 13:47:00,
2013-08-19 07:52:00,73.8,58.1,29.76,SSW,196,0.0,0.0,58,0.00,,,0.00,meteohub,2013-08-19 13:52:00,
2013-08-19 07:57:00,73.9,58.3,29.76,SSW,196,0.0,0.0,58,0.00,,,0.00,meteohub,2013-08-19 13:57:00,
2013-08-19 08:02:00,74.5,57.7,29.76,SSW,196,0.0,0.0,56,0.00,,,0.00,meteohub,2013-08-19 14:02:00,
2013-08-19 08:07:00,74.8,58.1,29.77,SSW,196,0.0,0.0,56,0.00,,,0.00,meteohub,2013-08-19 14:07:00,
2013-08-19 08:12:00,75.4,58.1,29.77,SSW,196,0.0,0.0,55,0.00,,,0.00,meteohub,2013-08-19 14:12:00,
2013-08-19 08:17:00,76.5,58.1,29.77,SSW,196,0.0,0.0,53,0.00,,,0.00,meteohub,2013-08-19 14:17:00,
2013-08-19 08:23:00,77.5,57.9,29.77,SSW,196,0.0,0.0,51,0.00,,,0.00,meteohub,2013-08-19 14:23:00,
2013-08-19 08:28:00,78.4,58.3,29.77,SSW,196,0.0,0.0,50,0.00,,,0.00,meteohub,2013-08-19 14:28:00,
2013-08-19 08:33:00,79.5,57.6,29.77,SSW,196,0.0,0.0,47,0.00,,,0.00,meteohub,2013-08-19 14:33:00,
2013-08-19 08:38:00,80.2,57.6,29.77,SSW,196,0.0,0.0,46,0.00,,,0.00,meteohub,2013-08-19 14:38:00,
2013-08-19 08:43:00,80.8,58.1,29.77,SSW,196,0.0,0.0,46,0.00,,,0.00,meteohub,2013-08-19 14:43:00,
2013-08-19 08:48:00,81.5,58.6,29.78,SSW,196,0.0,0.0,46,0.00,,,0.00,meteohub,2013-08-19 14:48:00,
2013-08-19 08:53:00,81.9,57.7,29.78,SSW,202,0.0,0.0,44,0.00,,,0.00,meteohub,2013-08-19 14:53:00,
2013-08-19 08:59:00,82.2,58.1,29.78,SSW,202,0.0,0.0,44,0.00,,,0.00,meteohub,2013-08-19 14:59:00,
2013-08-19 09:04:00,82.6,57.7,29.78,SSW,202,0.0,0.0,43,0.00,,,0.00,meteohub,2013-08-19 15:04:00,
2013-08-19 09:09:00,82.6,57.2,29.78,SW,228,0.0,0.0,42,0.00,,,0.00,meteohub,2013-08-19 15:09:00,
2013-08-19 09:14:00,82.2,56.8,29.78,WSW,245,0.0,0.0,42,0.00,,,0.00,meteohub,2013-08-19 15:14:00,
2013-08-19 09:19:00,82.8,57.9,29.77,WSW,245,0.0,0.0,43,0.00,,,0.00,meteohub,2013-08-19 15:19:00,
2013-08-19 09:24:00,82.9,58.8,29.78,WSW,245,0.0,0.0,44,0.00,,,0.00,meteohub,2013-08-19 15:24:00,
2013-08-19 09:29:00,83.7,57.4,29.78,WSW,245,0.0,0.0,41,0.00,,,0.00,meteohub,2013-08-19 15:29:00,
2013-08-19 09:34:00,84.6,57.6,29.78,WSW,245,0.0,0.0,40,0.00,,,0.00,meteohub,2013-08-19 15:34:00,
2013-08-19 09:40:00,85.6,57.9,29.78,WSW,245,0.0,0.0,39,0.00,,,0.00,meteohub,2013-08-19 15:40:00,
2013-08-19 09:45:00,86.7,58.8,29.78,WSW,245,0.0,0.0,39,0.00,,,0.00,meteohub,2013-08-19 15:45:00,
2013-08-19 09:50:00,87.3,57.0,29.78,WSW,245,0.0,0.0,36,0.00,,,0.00,meteohub,2013-08-19 15:50:00,
2013-08-19 09:55:00,86.7,56.7,29.78,WSW,245,0.0,0.0,36,0.00,,,0.00,meteohub,2013-08-19 15:55:00,
2013-08-19 10:00:00,86.5,57.9,29.78,WSW,245,0.0,0.0,38,0.00,,,0.00,meteohub,2013-08-19 16:00:00,
2013-08-19 10:05:00,86.7,57.4,29.78,WSW,245,0.0,0.0,37,0.00,,,0.00,meteohub,2013-08-19 16:05:00,
2013-08-19 10:10:00,86.9,56.7,29.78,WSW,245,0.0,0.0,36,0.00,,,0.00,meteohub,2013-08-19 16:10:00,
2013-08-19 10:16:00,87.3,57.0,29.78,WSW,245,0.0,0.0,36,0.00,,,0.00,meteohub,2013-08-19 16:16:00,
2013-08-19 10:21:00,87.6,58.8,29.78,WSW,245,0.0,0.0,38,0.00,,,0.00,meteohub,2013-08-19 16:21:00,
2013-08-19 10:26:00,88.0,56.8,29.78,WSW,246,0.0,0.0,35,0.00,,,0.00,meteohub,2013-08-19 16:26:00,
2013-08-19 10:31:00,88.0,56.8,29.77,WSW,249,0.0,0.0,35,0.00,,,0.00,meteohub,2013-08-19 16:31:00,
2013-08-19 10:36:00,87.8,57.6,29.77,WSW,249,0.0,0.0,36,0.00,,,0.00,meteohub,2013-08-19 16:36:00,
2013-08-19 10:41:00,88.5,59.0,29.77,WSW,249,0.0,0.0,37,0.00,,,0.00,meteohub,2013-08-19 16:41:00,
2013-08-19 10:46:00,89.2,57.2,29.77,WSW,249,0.0,0.0,34,0.00,,,0.00,meteohub,2013-08-19 16:46:00,
2013-08-19 10:51:00,90.0,57.7,29.77,WSW,249,0.0,0.0,34,0.00,,,0.00,meteohub,2013-08-19 16:51:00,
2013-08-19 10:57:00,90.3,58.1,29.77,SW,234,0.0,0.0,34,0.00,,,0.00,meteohub,2013-08-19 16:57:00,
2013-08-19 11:02:00,90.7,58.5,29.77,SSW,202,0.0,0.0,34,0.00,,,0.00,meteohub,2013-08-19 17:02:00,
2013-08-19 11:07:00,90.7,58.5,29.77,SSW,196,0.0,0.0,34,0.00,,,0.00,meteohub,2013-08-19 17:07:00,
2013-08-19 11:12:00,91.0,57.0,29.77,SSW,196,0.0,0.0,32,0.00,,,0.00,meteohub,2013-08-19 17:12:00,
2013-08-19 11:17:00,91.4,57.4,29.76,SSW,195,0.0,0.0,32,0.00,,,0.00,meteohub,2013-08-19 17:17:00,
2013-08-19 11:22:00,91.6,57.6,29.76,SSW,196,0.0,0.0,32,0.00,,,0.00,meteohub,2013-08-19 17:22:00,
2013-08-19 11:27:00,91.8,55.9,29.76,SSW,196,0.0,0.0,30,0.00,,,0.00,meteohub,2013-08-19 17:27:00,
2013-08-19 11:32:00,91.9,56.1,29.76,SSW,197,0.0,0.0,30,0.00,,,0.00,meteohub,2013-08-19 17:32:00,
2013-08-19 11:37:00,92.5,57.4,29.75,SSW,194,0.0,0.0,31,0.00,,,0.00,meteohub,2013-08-19 17:37:00,
2013-08-19 11:42:00,93.0,56.1,29.76,SSE,159,0.0,0.0,29,0.00,,,0.00,meteohub,2013-08-19 17:42:00,
2013-08-19 11:47:00,93.0,57.0,29.75,ESE,121,0.0,0.0,30,0.00,,,0.00,meteohub,2013-08-19 17:47:00,
2013-08-19 11:52:00,93.4,56.3,29.75,SSW,212,0.0,0.0,29,0.00,,,0.00,meteohub,2013-08-19 17:52:00,
2013-08-19 11:57:00,93.7,55.8,29.75,SSW,209,0.0,0.0,28,0.00,,,0.00,meteohub,2013-08-19 17:57:00,
2013-08-19 12:02:00,93.6,56.5,29.75,SSW,210,0.0,0.0,29,0.00,,,0.00,meteohub,2013-08-19 18:02:00,
2013-08-19 12:07:00,93.7,55.8,29.75,SSW,204,0.0,0.0,28,0.00,,,0.00,meteohub,2013-08-19 18:07:00,
2013-08-19 12:12:00,93.7,56.7,29.74,SW,230,0.0,0.0,29,0.00,,,0.00,meteohub,2013-08-19 18:12:00,
2013-08-19 12:17:00,92.7,57.6,29.74,SW,234,0.0,0.0,31,0.00,,,0.00,meteohub,2013-08-19 18:17:00,
2013-08-19 12:22:00,93.0,56.1,29.74,SW,225,0.0,0.0,29,0.00,,,0.00,meteohub,2013-08-19 18:22:00,
2013-08-19 12:27:00,93.7,56.7,29.74,SW,223,0.0,0.0,29,0.00,,,0.00,meteohub,2013-08-19 18:27:00,
2013-08-19 12:32:00,94.5,56.3,29.74,SSW,194,0.0,0.0,28,0.00,,,0.00,meteohub,2013-08-19 18:32:00,
2013-08-19 12:37:00,94.8,56.7,29.74,SSW,194,0.0,0.0,28,0.00,,,0.00,meteohub,2013-08-19 18:37:00,
2013-08-19 12:42:00,95.2,55.9,29.73,ESE,113,0.0,0.0,27,0.00,,,0.00,meteohub,2013-08-19 18:42:00,
2013-08-19 12:47:00,95.4,57.0,29.73,ESE,113,0.0,0.0,28,0.00,,,0.00,meteohub,2013-08-19 18:47:00,
2013-08-19 12:52:00,95.5,57.2,29.73,SSW,202,0.0,0.0,28,0.00,,,0.00,meteohub,2013-08-19 18:52:00,
2013-08-19 12:57:00,95.4,56.1,29.73,South,190,0.0,0.0,27,0.00,,,0.00,meteohub,2013-08-19 18:57:00,
2013-08-19 13:02:00,95.4,55.0,29.72,South,188,0.0,0.0,26,0.00,,,0.00,meteohub,2013-08-19 19:02:00,
2013-08-19 13:07:00,95.7,54.3,29.72,West,259,0.0,0.0,25,0.00,,,0.00,meteohub,2013-08-19 19:07:00,
2013-08-19 13:12:00,95.0,55.8,29.72,West,259,0.0,0.0,27,0.00,,,0.00,meteohub,2013-08-19 19:12:00,
2013-08-19 13:17:00,95.5,55.2,29.72,WSW,250,0.0,0.0,26,0.00,,,0.00,meteohub,2013-08-19 19:17:00,
2013-08-19 13:23:00,96.1,53.4,29.72,SE,124,0.0,0.0,24,0.00,,,0.00,meteohub,2013-08-19 19:23:00,
2013-08-19 13:28:00,96.3,54.7,29.71,ESE,112,0.0,0.0,25,0.00,,,0.00,meteohub,2013-08-19 19:28:00,
2013-08-19 13:33:00,97.0,55.4,29.71,SSW,197,0.0,0.0,25,0.00,,,0.00,meteohub,2013-08-19 19:33:00,
2013-08-19 13:38:00,97.2,55.4,29.71,SSW,198,0.0,0.0,25,0.00,,,0.00,meteohub,2013-08-19 19:38:00,
2013-08-19 13:43:00,97.3,54.5,29.71,SW,219,0.0,0.0,24,0.00,,,0.00,meteohub,2013-08-19 19:43:00,
2013-08-19 13:48:00,97.5,54.7,29.71,SSW,200,0.0,0.0,24,0.00,,,0.00,meteohub,2013-08-19 19:48:00,
2013-08-19 13:53:00,97.9,56.1,29.71,South,191,0.0,0.0,25,0.00,,,0.00,meteohub,2013-08-19 19:53:00,
2013-08-19 13:58:00,98.2,55.2,29.70,SSW,200,0.0,0.0,24,0.00,,,0.00,meteohub,2013-08-19 19:58:00,
2013-08-19 14:04:00,98.6,56.7,29.70,SSW,213,0.0,0.0,25,0.00,,,0.00,meteohub,2013-08-19 20:04:00,
2013-08-19 14:09:00,98.1,54.0,29.70,West,269,0.0,0.0,23,0.00,,,0.00,meteohub,2013-08-19 20:09:00,
2013-08-19 14:14:00,96.4,53.8,29.69,West,270,0.0,0.0,24,0.00,,,0.00,meteohub,2013-08-19 20:14:00,
2013-08-19 14:19:00,96.8,52.9,29.69,ESE,118,0.0,0.0,23,0.00,,,0.00,meteohub,2013-08-19 20:19:00,
2013-08-19 14:24:00,97.3,55.6,29.68,WSW,254,0.0,0.0,25,0.00,,,0.00,meteohub,2013-08-19 20:24:00,
2013-08-19 14:29:00,97.5,54.7,29.68,WSW,254,0.0,0.0,24,0.00,,,0.00,meteohub,2013-08-19 20:29:00,
2013-08-19 14:34:00,98.2,55.2,29.68,West,271,0.0,0.0,24,0.00,,,0.00,meteohub,2013-08-19 20:34:00,
2013-08-19 14:39:00,97.3,53.4,29.68,West,269,0.0,0.0,23,0.00,,,0.00,meteohub,2013-08-19 20:39:00,
2013-08-19 14:45:00,96.3,54.7,29.68,West,270,0.0,0.0,25,0.00,,,0.00,meteohub,2013-08-19 20:45:00,
2013-08-19 14:50:00,96.4,55.9,29.67,West,270,0.0,0.0,26,0.00,,,0.00,meteohub,2013-08-19 20:50:00,
2013-08-19 14:55:00,96.3,52.5,29.67,West,261,0.0,0.0,23,0.00,,,0.00,meteohub,2013-08-19 20:55:00,
2013-08-19 15:00:00,96.3,53.6,29.67,West,263,0.0,0.0,24,0.00,,,0.00,meteohub,2013-08-19 21:00:00,
2013-08-19 15:05:00,97.0,53.1,29.66,WSW,254,0.0,0.0,23,0.00,,,0.00,meteohub,2013-08-19 21:05:00,
2013-08-19 15:10:00,97.2,55.4,29.66,West,269,0.0,0.0,25,0.00,,,0.00,meteohub,2013-08-19 21:10:00,
2013-08-19 15:15:00,97.3,53.4,29.66,ESE,111,0.0,0.0,23,0.00,,,0.00,meteohub,2013-08-19 21:15:00,
2013-08-19 15:21:00,98.1,54.0,29.65,East,94,0.0,0.0,23,0.00,,,0.00,meteohub,2013-08-19 21:21:00,
2013-08-19 15:26:00,98.8,54.5,29.65,West,267,0.0,0.0,23,0.00,,,0.00,meteohub,2013-08-19 21:26:00,
2013-08-19 15:31:00,99.1,54.9,29.65,West,265,0.0,0.0,23,0.00,,,0.00,meteohub,2013-08-19 21:31:00,
2013-08-19 15:36:00,100.0,54.3,29.65,SE,125,0.0,0.0,22,0.00,,,0.00,meteohub,2013-08-19 21:36:00,
2013-08-19 15:41:00,100.8,53.6,29.65,SW,236,0.0,0.0,21,0.00,,,0.00,meteohub,2013-08-19 21:41:00,
2013-08-19 15:46:00,101.1,54.0,29.65,SW,236,0.0,0.0,21,0.00,,,0.00,meteohub,2013-08-19 21:46:00,
2013-08-19 15:52:00,101.1,55.2,29.64,West,275,0.0,0.0,22,0.00,,,0.00,meteohub,2013-08-19 21:52:00,
2013-08-19 15:57:00,99.1,53.6,29.64,West,265,0.0,0.0,22,0.00,,,0.00,meteohub,2013-08-19 21:57:00,
2013-08-19 16:02:00,98.4,54.3,29.64,West,265,0.0,0.0,23,0.00,,,0.00,meteohub,2013-08-19 22:02:00,
2013-08-19 16:07:00,99.3,53.8,29.64,West,271,0.0,0.0,22,0.00,,,0.00,meteohub,2013-08-19 22:07:00,
2013-08-19 16:12:00,100.2,54.5,29.64,South,186,0.0,0.0,22,0.00,,,0.00,meteohub,2013-08-19 22:12:00,
2013-08-19 16:17:00,100.6,54.9,29.64,South,188,0.0,0.0,22,0.00,,,0.00,meteohub,2013-08-19 22:17:00,
2013-08-19 16:22:00,100.4,54.7,29.63,East,97,0.0,0.0,22,0.00,,,0.00,meteohub,2013-08-19 22:22:00,
2013-08-19 16:27:00,98.2,55.2,29.64,East,92,0.0,0.0,24,0.00,,,0.00,meteohub,2013-08-19 22:27:00,
2013-08-19 16:32:00,96.4,54.9,29.63,ESE,102,0.0,0.0,25,0.00,,,0.00,meteohub,2013-08-19 22:32:00,
2013-08-19 16:37:00,95.7,54.3,29.63,East,91,0.0,0.0,25,0.00,,,0.00,meteohub,2013-08-19 22:37:00,
2013-08-19 16:42:00,95.5,56.3,29.63,ESE,104,0.0,0.0,27,0.00,,,0.00,meteohub,2013-08-19 22:42:00,
2013-08-19 16:47:00,93.4,58.3,29.63,ESE,104,0.0,0.0,31,0.00,,,0.00,meteohub,2013-08-19 22:47:00,
2013-08-19 16:52:00,91.4,56.5,29.63,East,95,0.0,0.0,31,0.00,,,0.00,meteohub,2013-08-19 22:52:00,
2013-08-19 16:58:00,90.9,56.1,29.63,East,80,0.0,0.0,31,0.00,,,0.00,meteohub,2013-08-19 22:58:00,
2013-08-19 17:03:00,91.0,57.9,29.63,East,88,0.0,0.0,33,0.00,,,0.00,meteohub,2013-08-19 23:03:00,
2013-08-19 17:08:00,90.9,56.8,29.63,ENE,78,0.0,0.0,32,0.00,,,0.00,meteohub,2013-08-19 23:08:00,
2013-08-19 17:13:00,90.9,56.1,29.65,ENE,78,0.0,0.0,31,0.00,,,0.00,meteohub,2013-08-19 23:13:00,
2013-08-19 17:18:00,89.2,58.8,29.65,South,182,0.0,0.0,36,0.00,,,0.00,meteohub,2013-08-19 23:18:00,
2013-08-19 17:23:00,87.1,62.6,29.66,WSW,248,0.0,0.0,44,0.00,,,0.00,meteohub,2013-08-19 23:23:00,
2013-08-19 17:29:00,82.6,61.0,29.66,East,93,0.0,1.0,48,0.00,,,0.00,meteohub,2013-08-19 23:29:00,
2013-08-19 17:34:00,80.4,60.1,29.66,East,88,0.0,1.0,50,0.03,,,0.03,meteohub,2013-08-19 23:34:00,
2013-08-19 17:39:00,79.0,60.4,29.66,East,88,0.0,1.0,53,0.04,,,0.03,meteohub,2013-08-19 23:39:00,
2013-08-19 17:44:00,78.1,59.0,29.66,ENE,78,0.0,0.0,52,0.04,,,0.04,meteohub,2013-08-19 23:44:00,
2013-08-19 17:49:00,79.2,60.1,29.67,SSW,203,0.0,0.0,52,0.05,,,0.05,meteohub,2013-08-19 23:49:00,
2013-08-19 17:54:00,79.0,62.4,29.67,SSW,200,0.0,0.0,57,0.07,,,0.05,meteohub,2013-08-19 23:54:00,
2013-08-19 18:00:00,78.3,61.7,29.67,SSW,194,0.0,0.0,57,0.09,,,0.09,meteohub,2013-08-20 00:00:00,
2013-08-19 18:05:00,77.5,63.0,29.67,SSW,194,0.0,0.0,61,0.09,,,0.09,meteohub,2013-08-20 00:05:00,
2013-08-19 18:10:00,76.8,64.2,29.68,SSW,194,0.0,0.0,65,0.09,,,0.09,meteohub,2013-08-20 00:10:00,
2013-08-19 18:15:00,76.8,60.4,29.68,South,189,0.0,0.0,57,0.09,,,0.09,meteohub,2013-08-20 00:15:00,
2013-08-19 18:20:00,76.8,60.4,29.67,South,176,0.0,0.0,57,0.09,,,0.09,meteohub,2013-08-20 00:20:00,
2013-08-19 18:26:00,76.8,60.4,29.67,ESE,107,0.0,0.0,57,0.09,,,0.09,meteohub,2013-08-20 00:26:00,
2013-08-19 18:31:00,77.2,61.3,29.67,SE,130,0.0,0.0,58,0.08,,,0.09,meteohub,2013-08-20 00:31:00,
2013-08-19 18:36:00,77.4,58.8,29.67,SSW,210,0.0,0.0,53,0.05,,,0.09,meteohub,2013-08-20 00:36:00,
2013-08-19 18:41:00,77.7,59.7,29.68,SSW,209,0.0,0.0,54,0.05,,,0.09,meteohub,2013-08-20 00:41:00,
2013-08-19 18:46:00,78.1,60.6,29.68,SSW,209,0.0,0.0,55,0.04,,,0.09,meteohub,2013-08-20 00:46:00,
2013-08-19 18:52:00,78.1,61.2,29.68,SSW,209,0.0,0.0,56,0.02,,,0.09,meteohub,2013-08-20 00:52:00,
2013-08-19 18:57:00,77.9,61.9,29.69,SSW,209,0.0,0.0,58,0.00,,,0.09,meteohub,2013-08-20 00:57:00,
2013-08-19 19:02:00,77.7,62.8,29.69,SSW,209,0.0,0.0,60,0.00,,,0.09,meteohub,2013-08-20 01:02:00,
2013-08-19 19:07:00,77.5,62.6,29.70,SSW,209,0.0,0.0,60,0.00,,,0.09,meteohub,2013-08-20 01:07:00,
2013-08-19 19:12:00,77.4,61.3,29.70,SSW,203,0.0,0.0,58,0.00,,,0.09,meteohub,2013-08-20 01:12:00,
2013-08-19 19:17:00,78.1,59.5,29.70,SSW,196,0.0,0.0,53,0.00,,,0.09,meteohub,2013-08-20 01:17:00,
2013-08-19 19:22:00,78.6,59.5,29.70,SSW,196,0.0,0.0,52,0.00,,,0.09,meteohub,2013-08-20 01:22:00,
2013-08-19 19:27:00,79.2,59.0,29.70,SSW,201,0.0,0.0,50,0.00,,,0.09,meteohub,2013-08-20 01:27:00,
2013-08-19 19:32:00,79.5,58.1,29.70,SSW,201,0.0,0.0,48,0.00,,,0.09,meteohub,2013-08-20 01:32:00,
2013-08-19 19:37:00,79.9,58.5,29.71,SSW,201,0.0,0.0,48,0.00,,,0.09,meteohub,2013-08-20 01:37:00,
2013-08-19 19:42:00,79.9,59.0,29.71,SSW,201,0.0,0.0,49,0.00,,,0.09,meteohub,2013-08-20 01:42:00,
2013-08-19 19:47:00,80.1,58.1,29.71,SSW,201,0.0,0.0,47,0.00,,,0.09,meteohub,2013-08-20 01:47:00,
2013-08-19 19:52:00,79.9,60.6,29.71,SSW,204,0.0,0.0,52,0.00,,,0.09,meteohub,2013-08-20 01:52:00,
2013-08-19 19:57:00,78.4,61.0,29.71,West,261,0.0,0.0,55,0.01,,,0.10,meteohub,2013-08-20 01:57:00,
2013-08-19 20:02:00,76.8,61.9,29.70,West,267,0.0,0.0,60,0.02,,,0.11,meteohub,2013-08-20 02:02:00,
2013-08-19 20:07:00,75.7,61.9,29.70,West,269,0.0,0.0,62,0.03,,,0.12,meteohub,2013-08-20 02:07:00,
2013-08-19 20:12:00,74.5,61.5,29.70,West,271,0.0,0.0,64,0.04,,,0.12,meteohub,2013-08-20 02:12:00,
2013-08-19 20:17:00,73.6,63.1,29.71,West,271,0.0,0.0,70,0.04,,,0.13,meteohub,2013-08-20 02:17:00,
2013-08-19 20:22:00,72.7,60.6,29.71,West,269,0.0,0.0,66,0.04,,,0.13,meteohub,2013-08-20 02:22:00,
2013-08-19 20:27:00,73.2,60.3,29.71,ENE,76,0.0,0.0,64,0.04,,,0.13,meteohub,2013-08-20 02:27:00,
2013-08-19 20:32:00,74.1,60.3,29.71,ENE,76,0.0,0.0,62,0.04,,,0.13,meteohub,2013-08-20 02:32:00,
2013-08-19 20:37:00,74.5,60.6,29.71,ENE,76,0.0,0.0,62,0.04,,,0.13,meteohub,2013-08-20 02:37:00,
2013-08-19 20:42:00,74.7,60.8,29.71,ENE,76,0.0,0.0,62,0.04,,,0.13,meteohub,2013-08-20 02:42:00,
2013-08-19 20:47:00,75.0,60.3,29.70,ENE,76,0.0,0.0,60,0.04,,,0.13,meteohub,2013-08-20 02:47:00,
2013-08-19 20:52:00,75.6,60.6,29.70,ENE,76,0.0,0.0,60,0.03,,,0.13,meteohub,2013-08-20 02:52:00,
2013-08-19 20:57:00,75.6,61.7,29.70,ENE,76,0.0,0.0,62,0.04,,,0.14,meteohub,2013-08-20 02:57:00,
2013-08-19 21:02:00,75.2,61.3,29.69,ENE,76,0.0,0.0,62,0.03,,,0.14,meteohub,2013-08-20 03:02:00,
2013-08-19 21:07:00,74.8,61.3,29.69,ENE,76,0.0,0.0,63,0.02,,,0.14,meteohub,2013-08-20 03:07:00,
2013-08-19 21:12:00,74.7,63.3,29.69,ENE,76,0.0,0.0,68,0.01,,,0.14,meteohub,2013-08-20 03:12:00,
2013-08-19 21:17:00,74.3,62.6,29.69,ENE,76,0.0,0.0,67,0.01,,,0.14,meteohub,2013-08-20 03:17:00,
2013-08-19 21:22:00,74.3,62.6,29.69,ENE,76,0.0,0.0,67,0.01,,,0.14,meteohub,2013-08-20 03:22:00,
2013-08-19 21:27:00,74.1,62.4,29.69,ENE,76,0.0,0.0,67,0.01,,,0.14,meteohub,2013-08-20 03:27:00,
2013-08-19 21:32:00,74.1,62.4,29.70,ENE,76,0.0,0.0,67,0.01,,,0.14,meteohub,2013-08-20 03:32:00,
2013-08-19 21:38:00,74.8,63.5,29.71,ENE,76,0.0,0.0,68,0.01,,,0.14,meteohub,2013-08-20 03:38:00,
2013-08-19 21:43:00,75.0,64.2,29.71,ENE,76,0.0,0.0,69,0.01,,,0.14,meteohub,2013-08-20 03:43:00,
2013-08-19 21:48:00,74.8,64.0,29.71,ENE,76,0.0,0.0,69,0.01,,,0.14,meteohub,2013-08-20 03:48:00,
2013-08-19 21:53:00,74.8,64.0,29.71,ENE,76,0.0,0.0,69,0.00,,,0.14,meteohub,2013-08-20 03:53:00,
2013-08-19 21:58:00,75.0,64.2,29.70,ENE,76,0.0,0.0,69,0.00,,,0.14,meteohub,2013-08-20 03:58:00,
2013-08-19 22:01:00,74.8,64.0,29.71,ENE,76,0.0,0.0,69,0.00,,,0.14,meteohub,2013-08-20 04:01:00,
2013-08-19 22:02:00,74.8,64.0,29.71,ENE,76,0.0,0.0,69,0.00,,,0.14,meteohub,2013-08-20 04:02:00,
2013-08-19 22:04:00,74.8,64.4,29.71,ENE,76,0.0,0.0,70,0.00,,,0.14,meteohub,2013-08-20 04:04:00,
2013-08-19 22:09:00,74.7,64.2,29.71,ENE,76,0.0,0.0,70,0.00,,,0.14,meteohub,2013-08-20 04:09:00,
2013-08-19 22:14:00,74.5,64.0,29.71,ENE,76,0.0,0.0,70,0.00,,,0.14,meteohub,2013-08-20 04:14:00,
2013-08-19 22:19:00,74.1,64.0,29.72,ENE,76,0.0,0.0,71,0.00,,,0.14,meteohub,2013-08-20 04:19:00,
2013-08-19 22:24:00,74.1,63.3,29.72,ENE,76,0.0,0.0,69,0.00,,,0.14,meteohub,2013-08-20 04:24:00,
2013-08-19 22:29:00,73.9,63.1,29.72,ENE,76,0.0,0.0,69,0.00,,,0.14,meteohub,2013-08-20 04:29:00,
2013-08-19 22:35:00,73.8,63.0,29.72,ENE,76,0.0,0.0,69,0.00,,,0.14,meteohub,2013-08-20 04:35:00,
2013-08-19 22:40:00,73.6,62.8,29.72,ENE,76,0.0,0.0,69,0.00,,,0.14,meteohub,2013-08-20 04:40:00,
2013-08-19 22:45:00,73.6,63.7,29.72,ENE,76,0.0,0.0,71,0.00,,,0.14,meteohub,2013-08-20 04:45:00,
2013-08-19 22:50:00,73.6,63.7,29.72,ENE,76,0.0,0.0,71,0.00,,,0.14,meteohub,2013-08-20 04:50:00,
2013-08-19 22:55:00,73.6,63.1,29.73,ENE,76,0.0,0.0,70,0.00,,,0.14,meteohub,2013-08-20 04:55:00,
2013-08-19 23:00:00,73.8,62.6,29.73,ENE,76,0.0,0.0,68,0.00,,,0.14,meteohub,2013-08-20 05:00:00,
2013-08-19 23:06:00,74.1,62.1,29.73,ENE,76,0.0,0.0,66,0.00,,,0.14,meteohub,2013-08-20 05:06:00,
2013-08-19 23:11:00,74.3,61.7,29.73,ENE,76,0.0,0.0,65,0.00,,,0.14,meteohub,2013-08-20 05:11:00,
2013-08-19 23:16:00,74.1,61.5,29.73,ENE,76,0.0,0.0,65,0.00,,,0.14,meteohub,2013-08-20 05:16:00,
2013-08-19 23:21:00,73.9,61.9,29.73,ENE,76,0.0,0.0,66,0.00,,,0.14,meteohub,2013-08-20 05:21:00,
2013-08-19 23:26:00,73.8,62.1,29.73,ENE,76,0.0,0.0,67,0.00,,,0.14,meteohub,2013-08-20 05:26:00,
2013-08-19 23:32:00,73.6,62.4,29.73,ENE,76,0.0,0.0,68,0.00,,,0.14,meteohub,2013-08-20 05:32:00,
2013-08-19 23:37:00,73.2,62.1,29.73,ENE,76,0.0,0.0,68,0.00,,,0.14,meteohub,2013-08-20 05:37:00,
2013-08-19 23:42:00,73.4,62.2,29.74,ENE,76,0.0,0.0,68,0.00,,,0.14,meteohub,2013-08-20 05:42:00,
2013-08-19 23:47:00,73.6,62.4,29.74,ENE,76,0.0,0.0,68,0.00,,,0.14,meteohub,2013-08-20 05:47:00,
2013-08-19 23:52:00,73.8,62.6,29.74,ENE,76,0.0,0.0,68,0.00,,,0.14,meteohub,2013-08-20 05:52:00,
2013-08-19 23:57:00,73.8,62.6,29.74,ENE,76,0.0,0.0,68,0.00,,,0.14,meteohub,2013-08-20 05:57:00,